Location: ? ????
(32.2341°N, 34.9502°E)
Time: 21:21:06
(UTC+00:00)

Daily predictions for brighter satellites

Satellite Brightness Start Highest point End
(mag) Time Altitude Azimuth Time Altitude Azimuth Time Altitude Azimuth
Cosmos 1980 Rocket 2.2 17:06:32 10° SSW 17:12:10 81° ESE 17:17:48 10° NNE
MOS 1-B Rocket 3.9 17:06:40 10° NNE 17:12:17 83° ESE 17:18:14 10° SSW
ERS-2 2.3 17:11:33 10° NNE 17:15:07 50° ESE 17:18:38 10° S
Cosmos 2221 Rocket 3.9 17:14:03 10° SSE 17:18:19 45° E 17:22:34 10° NNE
SAR-Lupe-1 4.3 17:16:20 10° N 17:19:54 75° WNW 17:23:27 10° SSW
CENTAUR R/B 2.4 17:16:36 10° SSW 17:21:55 58° ESE 17:28:09 10° NE
BREEZE-M DEB (TANK) 2.0 17:19:42 10° SW 17:22:27 50° SE 17:24:45 10° ENE
Cosmos 1821 Rocket 4.1 17:17:02 10° N 17:23:09 60° E 17:29:09 10° SSE
CSL-04 Rocket 4.1 17:20:51 10° S 17:26:17 68° WSW 17:31:49 10° NNW
Okean 2 Rocket 4.0 17:22:39 10° NNE 17:26:40 32° E 17:30:42 10° SE
Resurs 01 Rocket 3.3 17:25:28 10° ESE 17:28:21 17° ENE 17:31:14 10° NNE
Timation 2 Rocket 4.3 17:24:16 10° NNW 17:30:24 71° WSW 17:36:46 10° SSE
Meteor 1-15 Rocket 4.5 17:25:50 10° N 17:31:41 59° E 17:37:28 10° SSE
Ariane Rocket 3.7 17:27:18 10° SE 17:31:58 38° ENE 17:36:39 10° N
Cosmos 1805 3.2 17:34:41 10° N 17:38:33 69° E 17:42:24 10° SSE
Hubble Space Telescope 2.2 17:37:50 10° WSW 17:41:11 24° SSW 17:43:54 13° SSE
Cosmos 2219 4.4 17:40:40 10° NW 17:46:01 41° WSW 17:51:20 10° S
Cosmos 1624 Rocket 4.0 17:42:43 10° SSW 17:48:02 87° ESE 17:53:22 10° NNE
Cosmos 2263 Rocket 3.4 17:45:59 10° N 17:50:50 28° ENE 17:54:23 16° ESE
Cosmos 2297 Rocket 4.0 17:47:07 10° NW 17:51:55 29° WSW 17:56:42 10° SSW
MOS 1 4.3 17:47:37 10° SSE 17:53:14 70° ENE 17:58:55 10° N
Aureole 2 Rocket 1.5 17:51:54 10° N 17:54:16 57° ENE 17:55:08 31° SE
Cosmos 1140 Rocket 3.8 17:49:31 10° N 17:54:37 49° ENE 17:58:16 18° SE
IGS 5A 4.4 17:52:58 18° ESE 17:55:16 31° ENE 17:58:57 10° N
Cosmos 2227 Rocket 3.5 17:50:15 10° NW 17:55:24 37° WSW 18:00:33 10° S
Cosmos 1674 Rocket 3.5 17:52:28 10° S 17:56:51 69° E 18:01:14 10° NNE
Cosmos 1733 3.3 17:53:40 10° N 17:57:32 79° W 18:01:11 11° S
Cosmos 1707 3.7 17:56:55 21° SE 17:58:27 28° E 18:01:46 10° NNE
Cosmos 1300 Rocket 3.7 17:54:31 10° N 17:58:48 74° W 18:03:06 10° S
Cosmos 1726 3.6 17:57:00 10° NNE 17:59:45 20° ENE 18:00:31 19° E
SL-24 DEB 4.2 17:56:49 10° S 18:01:31 84° E 18:06:16 10° N
CZ-2C R/B 4.3 17:59:44 10° NNE 18:04:14 40° E 18:07:15 19° SSE
Cosmos 1934 Rocket 3.9 17:58:28 10° N 18:04:34 72° E 18:09:57 14° SSE
Sich 1 Rocket 4.2 18:00:24 10° NNW 18:04:41 56° W 18:08:58 10° S
IRS-1A Rocket 4.4 18:00:23 11° SSE 18:06:04 90° SW 18:11:56 10° NNW
Cosmos 1400 Rocket 2.7 18:04:37 10° N 18:08:30 85° W 18:11:11 19° S
Cosmos 1452 Rocket 3.9 18:08:15 15° SSE 18:12:11 43° ESE 18:17:09 10° NNE
Delta 128 3.8 18:09:19 10° WSW 18:13:40 50° S 18:15:57 27° ESE
SPOT 1/Viking Rocket 4.3 18:15:01 24° ESE 18:17:13 35° ENE 18:21:50 10° N
OBJECT-B 3.3 18:15:03 10° SW 18:17:23 19° W 18:19:45 10° NW
Cosmos 1727 Rocket 4.3 18:15:27 20° SSE 18:19:36 48° E 18:25:36 10° NNE
KM-V1 4.1 18:17:43 10° WSW 18:20:37 62° SSE 18:23:34 22° E
NOSS 3-2 (C) 3.9 18:16:13 10° SW 18:21:30 56° WNW 18:27:26 10° NNE
BREEZE-M DEB (TANK) 1.1 18:19:11 10° SW 18:21:39 80° NW 18:24:13 10° NE
Cosmos 2285 Rocket 4.2 18:21:02 10° SSW 18:27:27 79° WNW 18:33:55 10° NNE
Cosmos 292 Rocket 3.8 18:25:24 10° SSW 18:30:14 85° WNW 18:35:05 10° NNE
ATLAS 3B R/B 3.6 18:31:32 24° ESE 18:31:32 24° ESE 18:36:09 10° ENE
Cosmos 407 Rocket 3.9 18:26:31 10° NNW 18:31:44 61° WSW 18:35:00 22° S
SL-16 R/B 2.3 18:27:36 10° SSW 18:33:15 78° WNW 18:38:56 10° NNE
Cosmos 1605 Rocket 4.0 18:26:52 10° N 18:33:17 77° E 18:37:01 26° SSE
Meteor 2-20 Rocket 4.5 18:30:12 25° SSE 18:33:42 59° E 18:39:41 10° NNE
Meteor 1-21 4.4 18:29:57 10° SSW 18:35:39 75° W 18:41:18 10° N
IUS R/B (1) 4.1 18:20:52 10° W 18:35:40 36° SW 18:37:32 27° S
Spot 2 Rocket 4.3 18:34:53 31° ESE 18:36:12 36° ENE 18:40:48 10° N
Cosmos 2360 Rocket 2.5 18:34:32 32° SSE 18:36:30 44° ESE 18:41:50 10° NE
Cosmos 2322 Rocket 2.1 18:31:12 10° SSW 18:36:53 86° ESE 18:42:37 10° NNE
Okean 1 Rocket 2.9 18:34:29 10° N 18:38:51 79° E 18:40:10 45° SSE
Cosmos 1626 4.4 18:41:13 13° ENE 18:41:13 13° ENE 18:41:59 10° NE
Cosmos 1190 Rocket 4.2 18:37:31 10° NNW 18:42:46 67° WSW 18:45:21 30° S
Cosmos 1455 Rocket 4.5 18:39:30 10° NNE 18:42:55 24° ENE 18:42:55 24° ENE
Meteor 2-20 4.5 18:38:11 14° S 18:43:32 80° W 18:49:39 10° N
SPOT 3 Rocket 3.5 18:41:37 32° S 18:44:06 79° WSW 18:49:18 10° NNW
Terra 3.5 18:44:02 18° ENE 18:44:22 18° ENE 18:47:35 10° NNE
ERS-1 Rocket 4.0 18:44:47 28° E 18:45:34 29° ENE 18:49:52 10° NNE
Cosmos 2227 4.1 18:40:25 10° NNW 18:46:03 75° ENE 18:47:59 42° SE
Lacrosse 5 3.2 18:42:53 10° NNW 18:47:18 29° NE 18:49:00 24° ENE
Cosmos 2237 4.1 18:48:47 20° SSW 18:52:49 83° ESE 18:58:31 10° NNE
Cosmos 1470 3.1 18:50:15 10° NNW 18:54:10 60° W 18:54:58 48° SW
FALCON 9 DEB 4.3 18:51:38 10° WSW 18:54:55 43° NW 18:58:12 10° NNE
Cosmos 1315 Rocket 2.9 18:54:49 10° NNW 18:58:55 71° W 18:59:28 61° SSW
USA 215 3.1 18:53:27 10° NE 18:59:58 69° SE 19:06:27 10° SSW
Cosmos 1000 Rocket 4.4 19:02:06 46° SSE 19:03:49 65° E 19:09:54 10° NNE
Resurs 01 Rocket 3.0 19:02:42 23° SW 19:04:32 32° W 19:08:30 10° NW
Cosmos 1459 Rocket 4.3 19:00:06 10° N 19:05:52 45° E 19:06:43 43° ESE
Cosmos 1674 3.0 19:06:30 60° N 19:06:30 60° N 19:09:35 10° N
CZ-3C R/B 4.3 18:45:43 10° W 19:14:53 23° SW 19:19:24 18° SSW
Cosmos 676 Rocket 4.4 19:09:56 10° NNW 19:15:08 56° WSW 19:16:25 44° SSW
USA 245 3.9 19:15:55 56° SW 19:16:22 59° W 19:21:22 10° NNW
Cosmos 1758 3.9 19:12:36 10° NNW 19:16:27 51° W 19:16:27 51° W
CARTOSAT-1 3.5 19:17:15 83° NW 19:17:15 83° NW 19:21:27 10° NNW
Cosmos 1025 Rocket 3.4 19:20:24 55° NE 19:20:24 55° NE 19:23:59 10° NNE
Lacrosse 5 rocket 3.1 19:24:33 22° NNE 19:24:33 22° NNE 19:25:56 10° NNE
Cosmos 1844 Rocket 3.6 19:17:17 10° N 19:22:23 33° ENE 19:22:47 33° ENE
Cosmos 2123 Rocket 4.0 19:24:12 56° ESE 19:24:44 58° E 19:30:54 10° NNE
Cosmos 1975 Rocket 3.8 19:24:43 43° WSW 19:25:19 46° W 19:29:31 10° N
Cosmos 2333 4.1 19:30:08 73° ESE 19:30:15 74° ESE 19:35:59 10° NNE
Meteor 2-11 Rocket 4.3 19:25:31 10° N 19:31:35 67° E 19:32:04 65° ESE
Cosmos 1110 Rocket 4.3 19:32:33 49° WSW 19:33:39 62° WNW 19:38:48 10° N
Cosmos 1908 4.4 19:30:15 10° N 19:32:47 39° N 19:32:47 39° N
Cosmos 2263 Rocket 3.4 19:29:41 10° NW 19:34:40 32° WSW 19:36:05 28° SW
Cosmos 2333 Rocket 2.2 19:39:59 68° ENE 19:39:59 68° ENE 19:45:17 10° NNE
ARIANE 5 R/B 3.5 19:42:56 43° W 19:42:56 43° W 19:46:49 10° NNW
Cosmos 2100 Rocket 4.0 19:36:21 10° N 19:42:42 77° W 19:43:42 63° SSW
Cosmos 1953 3.5 19:41:26 10° NNW 19:44:20 42° NW 19:44:20 42° NW
ATLAS 2A CENTAUR R/B 4.1 19:46:59 10° WSW 19:53:03 25° SW 19:53:03 25° SW
Meteor 1-24 Rocket 4.2 19:58:36 46° NE 19:58:36 46° NE 20:02:36 10° NNE
SL-08 R/B 4.4 19:52:30 10° N 19:58:47 73° ENE 19:58:47 73° ENE
Cosmos 2219 Rocket 2.3 19:59:52 71° NNE 19:59:52 71° NNE 20:04:55 10° NNE
Aureole 1 Rocket 4.1 19:55:19 10° NNW 20:01:38 86° ENE 20:02:14 77° SSE
Cosmos 1844 4.0 19:57:12 10° NNW 20:02:04 57° NE 20:02:04 57° NE
Cosmos 2173 Rocket 4.4 19:57:52 10° NNW 20:04:02 53° W 20:04:54 50° WSW
SPOT 5 3.9 20:04:45 41° W 20:04:45 41° W 20:09:20 10° NNW
Cosmos 2016 Rocket 3.9 20:00:34 10° N 20:06:35 81° W 20:06:35 81° W
ATLAS CENTAUR R/B 3.7 20:06:00 10° N 20:08:23 20° NE 20:08:23 20° NE
Cosmos 2237 Rocket 4.1 20:15:29 19° ENE 20:15:29 19° ENE 20:17:23 10° NE
Cosmos 1725 Rocket 4.0 20:11:05 10° N 20:17:00 76° WNW 20:17:00 76° WNW
Cosmos 2360 Rocket 4.4 20:16:29 10° WSW 20:20:38 21° WNW 20:24:49 10° NNW
ATLAS 3B R/B 3.3 20:18:39 32° WSW 20:21:18 49° NW 20:27:44 10° NNE
Terra 3.3 20:22:54 32° WNW 20:22:54 32° WNW 20:26:10 10° NNW
Lacrosse 5 3.6 20:25:40 10° NW 20:28:12 25° WNW 20:28:12 25° WNW
COSMOS 2428 3.2 20:31:38 57° NW 20:31:38 57° NW 20:36:48 10° NNE
Cosmos 2278 Rocket 3.7 20:46:55 10° N 20:51:06 29° NE 20:51:06 29° NE
Cosmos 1844 Rocket 4.4 21:01:23 10° NW 21:04:26 23° WNW 21:04:26 23° WNW
USA 267 4.1 21:10:05 38° ENE 21:11:28 43° NE 21:17:33 10° NNW
ATLAS CENTAUR R/B 4.4 21:44:14 10° NW 21:44:31 12° NW 21:44:31 12° NW
SL-16 R/B 3.3 21:52:29 40° NE 21:52:29 40° NE 21:56:04 10° NNE
Cosmos 2237 Rocket 3.7 21:57:16 29° NW 21:57:16 29° NW 22:01:26 10° N
Resurs 1-4 Rocket 4.4 21:59:05 10° NE 22:00:53 15° ENE 22:00:53 15° ENE
NOSS 3-1 (C) 4.3 22:06:19 39° NE 22:06:19 39° NE 22:09:56 10° NNE
CZ-2D R/B 4.3 22:03:40 10° NE 22:05:31 15° ENE 22:05:31 15° ENE
SJ 16-02 3.8 22:03:59 10° NNE 22:05:49 19° NE 22:05:49 19° NE
Cosmos 1634 Rocket 4.3 22:16:33 10° N 22:21:56 63° NNE 22:21:56 63° NNE
ATLAS CENTAUR R/B 4.4 22:21:00 26° WNW 22:23:09 33° NNW 22:33:24 10° NNE
Cosmos 2278 Rocket 4.1 22:30:55 10° NW 22:32:55 20° WNW 22:32:55 20° WNW
Cosmos 1763 Rocket 4.3 22:55:16 46° NNE 22:55:16 46° NNE 22:58:49 10° NNE
USA 267 4.4 22:57:24 28° WNW 22:57:24 28° WNW 23:00:34 10° NW
Nadezhda 4 Rocket 4.3 22:54:53 55° E 22:54:53 55° E 23:00:42 10° NNE
SL-16 R/B 3.6 22:54:46 33° ESE 22:56:27 40° ENE 23:02:08 10° N
Helios 1B rocket 4.5 22:58:16 10° NNE 23:00:17 25° NE 23:00:17 25° NE
Cosmos 1943 3.4 23:08:56 64° NE 23:08:56 64° NE 23:13:47 10° NNE
Cosmos 1603 3.8 23:12:59 71° NNE 23:12:59 71° NNE 23:18:01 10° NNE
Cosmos 1943 Rocket 2.6 23:19:36 10° NNW 23:23:45 51° NW 23:23:45 51° NW
NPP 3.6 23:23:59 10° NNE 23:29:01 78° N 23:29:01 78° N
USA 305 4.4 23:31:29 32° ENE 23:31:29 32° ENE 23:33:58 10° NE
Cosmos 1092 Rocket 4.1 23:30:29 58° SE 23:31:18 65° E 23:37:21 10° NNE
Cosmos 2151 4.5 23:33:50 30° E 23:33:50 30° E 23:37:15 10° NNE
SL-16 R/B 4.4 23:34:21 13° WNW 23:35:03 13° NW 23:37:44 10° NNW
X-37B 3.9 23:35:58 11° N 23:35:58 11° N 23:36:50 10° N
Cosmos 841 Rocket 3.5 23:38:22 72° NNW 23:38:22 72° NNW 23:43:04 10° NNE
Cosmos 1633 4.4 23:41:58 29° NNE 23:41:58 29° NNE 23:43:52 10° NNE
Cosmos 2221 3.3 23:36:21 10° N 23:39:28 47° N 23:39:28 47° N
Resurs 1-4 Rocket 2.6 23:37:13 10° N 23:41:58 48° WNW 23:41:58 48° WNW
Cosmos 990 Rocket 4.1 23:37:52 10° NNW 23:42:20 65° NW 23:42:20 65° NW
Cosmos 1898 Rocket 3.4 23:37:53 10° NNW 23:43:07 80° ENE 23:43:10 80° E
Cosmos 540 Rocket 3.8 23:46:03 53° NW 23:46:03 53° NW 23:50:37 10° N
SJ 16-02 3.9 23:42:36 10° NW 23:42:46 11° NW 23:42:46 11° NW
OAO 1 4.4 23:46:37 87° NW 23:46:39 88° NNW 23:52:10 10° ENE
CZ-2D R/B 2.7 23:42:15 10° N 23:46:50 43° WNW 23:46:50 43° WNW
Cosmos 1937 Rocket 3.8 23:44:34 10° N 23:49:51 65° ENE 23:51:11 47° SE
USA 306 3.4 23:52:43 56° NE 23:52:43 56° NE 23:56:07 10° NE
Cosmos 1428 Rocket 4.5 23:51:50 54° SSE 23:53:21 79° E 23:59:40 10° N
NOSS 2-2 (C) 4.4 23:56:14 38° NNE 23:56:14 38° NNE 23:58:28 10° NNE
